When you browse on this site, cookies collect data to enhance your experience and personalize the content and advertising you see.
Visit our Privacy Policy to learn more. By continuing to use the site, you agree to this use of cookies and data.
  • In Romania
  • List of Countries
  • For 7 days
  • Water Temperature
  • Weather Map
  • Weather Widgets
  • user-avatar
    Login

    Hourly Weather Gitega

    Today, 13 November, Wednesday

    Time Temperature Precipitation Wind Pressure Humidity
    00:00 +18°C° 0 mm 1 mps 621 mmHg 87%
    01:00 +18°C° 0 mm 1 mps 620 mmHg 88%
    02:00 +16°C° 0 mm 0 mps 620 mmHg 89%
    03:00 +16°C° 0 mm 0 mps 620 mmHg 89%
    04:00 +15°C° 0 mm 0 mps 620 mmHg 90%
    05:00 +15°C° 0 mm 0 mps 621 mmHg 91%
    06:00 +17°C° 0 mm 0 mps 622 mmHg 87%
    07:00 +18°C° 0 mm 0 mps 623 mmHg 83%
    08:00 +20°C° 0 mm 0 mps 624 mmHg 79%
    09:00 +23°C° 0.4 mm 1 mps 624 mmHg 75%
    10:00 +24°C° 0.4 mm 2 mps 624 mmHg 71%
    11:00 +25°C° 0.4 mm 3 mps 624 mmHg 67%
    12:00 +25°C° 0.8 mm 3 mps 623 mmHg 67%
    13:00 +25°C° 0.8 mm 2 mps 622 mmHg 67%
    14:00 +25°C° 0.8 mm 2 mps 621 mmHg 67%
    15:00 +25°C° 0.5 mm 2 mps 621 mmHg 70%
    16:00 +24°C° 0.5 mm 1 mps 621 mmHg 74%
    17:00 +24°C° 0.5 mm 1 mps 621 mmHg 78%
    18:00 +22°C° 0 mm 1 mps 621 mmHg 81%
    19:00 +21°C° 0 mm 1 mps 621 mmHg 85%
    20:00 +19°C° 0 mm 1 mps 621 mmHg 88%
    21:00 +19°C° 0 mm 1 mps 621 mmHg 89%
    22:00 +18°C° 0 mm 1 mps 621 mmHg 89%
    23:00 +18°C° 0 mm 1 mps 621 mmHg 90%

    Tomorrow, 14 November, Thursday

    Time Temperature Precipitation Wind Pressure Humidity
    00:00 +18°C° 0 mm 1 mps 621 mmHg 90%
    01:00 +16°C° 0 mm 1 mps 620 mmHg 90%
    02:00 +16°C° 0 mm 1 mps 620 mmHg 90%
    03:00 +15°C° 0 mm 0 mps 620 mmHg 90%
    04:00 +15°C° 0 mm 0 mps 620 mmHg 90%
    05:00 +15°C° 0 mm 0 mps 620 mmHg 90%
    06:00 +16°C° 0 mm 0 mps 622 mmHg 85%
    07:00 +18°C° 0 mm 0 mps 623 mmHg 81%
    08:00 +20°C° 0 mm 0 mps 624 mmHg 77%
    09:00 +23°C° 0.5 mm 1 mps 624 mmHg 72%
    10:00 +24°C° 0.5 mm 1 mps 624 mmHg 67%
    11:00 +26°C° 0.5 mm 2 mps 624 mmHg 62%
    12:00 +25°C° 1.3 mm 2 mps 623 mmHg 65%
    13:00 +25°C° 1.3 mm 2 mps 623 mmHg 69%
    14:00 +25°C° 1.3 mm 2 mps 622 mmHg 72%
    15:00 +23°C° 1.8 mm 2 mps 621 mmHg 78%
    16:00 +22°C° 1.8 mm 1 mps 621 mmHg 84%
    17:00 +21°C° 1.8 mm 1 mps 620 mmHg 90%
    18:00 +20°C° 0.5 mm 1 mps 621 mmHg 90%
    19:00 +20°C° 0.5 mm 1 mps 621 mmHg 90%
    20:00 +17°C° 0.5 mm 0 mps 622 mmHg 90%
    21:00 +17°C° 0.4 mm 0 mps 622 mmHg 90%
    22:00 +19°C° 0.4 mm 1 mps 622 mmHg 89%
    23:00 +19°C° 0.4 mm 1 mps 622 mmHg 89%

    Day after tomorrow, 15 November, Friday

    Time Temperature Precipitation Wind Pressure Humidity
    00:00 +19°C° 0.2 mm 1 mps 622 mmHg 88%
    01:00 +17°C° 0.2 mm 0 mps 622 mmHg 88%
    02:00 +17°C° 0.2 mm 0 mps 621 mmHg 88%
    03:00 +17°C° 0 mm 0 mps 621 mmHg 89%
    04:00 +16°C° 0 mm 0 mps 621 mmHg 90%
    05:00 +16°C° 0 mm 0 mps 621 mmHg 92%
    06:00 +17°C° 0.2 mm 0 mps 622 mmHg 88%
    07:00 +18°C° 0.2 mm 0 mps 623 mmHg 85%
    08:00 +19°C° 0.2 mm 0 mps 624 mmHg 82%
    09:00 +22°C° 0.6 mm 1 mps 624 mmHg 78%
    10:00 +23°C° 0.6 mm 2 mps 624 mmHg 73%
    11:00 +24°C° 0.6 mm 3 mps 624 mmHg 69%
    12:00 +24°C° 1 mm 2 mps 623 mmHg 75%
    13:00 +24°C° 1 mm 2 mps 622 mmHg 75%
    14:00 +24°C° 1 mm 3 mps 622 mmHg 76%
    15:00 +23°C° 1.2 mm 2 mps 621 mmHg 79%
    16:00 +23°C° 1.2 mm 2 mps 621 mmHg 83%
    17:00 +22°C° 1.2 mm 1 mps 620 mmHg 86%
    18:00 +21°C° 0.3 mm 1 mps 621 mmHg 87%
    19:00 +20°C° 0.3 mm 1 mps 621 mmHg 87%
    20:00 +17°C° 0.3 mm 0 mps 621 mmHg 88%
    21:00 +17°C° 0 mm 0 mps 621 mmHg 88%
    22:00 +17°C° 0 mm 0 mps 621 mmHg 88%
    23:00 +19°C° 0 mm 1 mps 621 mmHg 89%

    16 November, Saturday

    Time Temperature Precipitation Wind Pressure Humidity
    00:00 +18°C° 0 mm 1 mps 620 mmHg 89%
    01:00 +16°C° 0 mm 0 mps 620 mmHg 90%
    02:00 +15°C° 0 mm 0 mps 619 mmHg 90%
    03:00 +15°C° 0 mm 0 mps 619 mmHg 90%
    04:00 +15°C° 0 mm 0 mps 619 mmHg 90%
    05:00 +15°C° 0 mm 0 mps 620 mmHg 89%
    06:00 +16°C° 0 mm 0 mps 620 mmHg 86%
    07:00 +18°C° 0 mm 0 mps 621 mmHg 82%
    08:00 +19°C° 0 mm 0 mps 622 mmHg 78%
    09:00 +23°C° 0.2 mm 1 mps 623 mmHg 72%
    10:00 +25°C° 0.2 mm 2 mps 623 mmHg 65%
    11:00 +26°C° 0.2 mm 3 mps 623 mmHg 58%
    12:00 +26°C° 0.4 mm 3 mps 622 mmHg 60%
    13:00 +26°C° 0.4 mm 3 mps 621 mmHg 61%
    14:00 +26°C° 0.4 mm 3 mps 621 mmHg 63%
    15:00 +25°C° 1.1 mm 2 mps 620 mmHg 69%
    16:00 +24°C° 1.1 mm 2 mps 620 mmHg 75%
    17:00 +23°C° 1.1 mm 1 mps 620 mmHg 82%
    18:00 +22°C° 0.5 mm 1 mps 620 mmHg 83%
    19:00 +21°C° 0.5 mm 1 mps 620 mmHg 85%
    20:00 +17°C° 0.5 mm 0 mps 620 mmHg 86%
    21:00 +17°C° 0.2 mm 0 mps 620 mmHg 87%
    22:00 +17°C° 0.2 mm 0 mps 620 mmHg 88%
    23:00 +16°C° 0.2 mm 0 mps 620 mmHg 88%

    17 November, Sunday

    Time Temperature Precipitation Wind Pressure Humidity
    00:00 +16°C° 0.1 mm 0 mps 620 mmHg 89%
    01:00 +16°C° 0.1 mm 0 mps 620 mmHg 89%
    02:00 +16°C° 0.1 mm 0 mps 619 mmHg 90%
    03:00 +16°C° 0 mm 0 mps 619 mmHg 89%
    04:00 +15°C° 0 mm 0 mps 620 mmHg 89%
    05:00 +15°C° 0 mm 0 mps 620 mmHg 89%
    06:00 +17°C° 0 mm 0 mps 621 mmHg 85%
    07:00 +18°C° 0 mm 0 mps 622 mmHg 82%
    08:00 +20°C° 0 mm 0 mps 623 mmHg 78%
    09:00 +23°C° 0.3 mm 1 mps 623 mmHg 72%
    10:00 +25°C° 0.3 mm 1 mps 623 mmHg 65%
    11:00 +26°C° 0.3 mm 2 mps 623 mmHg 58%
    12:00 +26°C° 1 mm 2 mps 622 mmHg 63%
    13:00 +25°C° 1 mm 2 mps 621 mmHg 67%
    14:00 +25°C° 1 mm 3 mps 621 mmHg 71%
    15:00 +24°C° 2.1 mm 2 mps 620 mmHg 76%
    16:00 +24°C° 2.1 mm 1 mps 620 mmHg 80%
    17:00 +23°C° 2.1 mm 1 mps 620 mmHg 84%
    18:00 +20°C° 0.6 mm 0 mps 620 mmHg 85%
    19:00 +18°C° 0.6 mm 0 mps 620 mmHg 86%
    20:00 +17°C° 0.6 mm 0 mps 620 mmHg 87%
    21:00 +17°C° 0.3 mm 0 mps 621 mmHg 87%
    22:00 +18°C° 0.3 mm 1 mps 621 mmHg 88%
    23:00 +18°C° 0.3 mm 1 mps 621 mmHg 89%

    18 November, Monday

    Time Temperature Precipitation Wind Pressure Humidity
    00:00 +18°C° 0 mm 1 mps 620 mmHg 89%
    01:00 +18°C° 0 mm 1 mps 620 mmHg 89%
    02:00 +18°C° 0 mm 1 mps 620 mmHg 89%
    03:00 +15°C° 0 mm 0 mps 620 mmHg 89%
    04:00 +15°C° 0 mm 0 mps 620 mmHg 89%
    05:00 +15°C° 0 mm 0 mps 620 mmHg 89%
    06:00 +16°C° 0 mm 0 mps 621 mmHg 87%
    07:00 +17°C° 0 mm 0 mps 622 mmHg 86%
    08:00 +18°C° 0 mm 0 mps 622 mmHg 85%
    09:00 +22°C° 0.7 mm 1 mps 623 mmHg 79%
    10:00 +23°C° 0.7 mm 1 mps 623 mmHg 74%
    11:00 +25°C° 0.7 mm 2 mps 623 mmHg 69%
    12:00 +25°C° 1.3 mm 2 mps 623 mmHg 71%
    13:00 +25°C° 1.3 mm 3 mps 622 mmHg 73%
    14:00 +24°C° 1.3 mm 3 mps 621 mmHg 75%
    15:00 +24°C° 1.1 mm 2 mps 621 mmHg 78%
    16:00 +23°C° 1.1 mm 2 mps 621 mmHg 82%
    17:00 +23°C° 1.1 mm 1 mps 621 mmHg 85%
    18:00 +21°C° 1.1 mm 1 mps 621 mmHg 85%
    19:00 +20°C° 1.1 mm 1 mps 621 mmHg 86%
    20:00 +17°C° 1.1 mm 0 mps 621 mmHg 86%
    21:00 +19°C° 0 mm 1 mps 621 mmHg 87%
    22:00 +18°C° 0 mm 1 mps 621 mmHg 87%
    23:00 +18°C° 0 mm 1 mps 621 mmHg 87%
    Show more